N3EG Weather Reports


Display with metric or nautical units.
time (UTC)temp
F
wind
direction
speed
MPH
gust
MPH
rain 1hr
in
rain 24hr
in
rain mn
in
humidity
%
barometer
mb
20260505022502 61 316 5.0 15.0 0.00 0.00 0.00 78 1011.9
20260505022003 61 309 5.0 14.0 0.00 0.00 0.00 77 1011.8
20260505021502 62 294 5.0 14.0 0.00 0.00 0.00 75 1011.8
20260505021002 63 306 5.0 10.0 0.00 0.00 0.00 75 1011.8
20260505020503 63 248 2.0 9.0 0.00 0.00 0.00 75 1011.8
20260505020002 63 314 5.0 12.0 0.00 0.00 0.00 74 1011.7
20260505015502 64 349 5.0 12.0 0.00 0.00 0.00 74 1011.7
20260505015003 64 319 6.0 12.0 0.00 0.00 0.00 73 1011.7
20260505014502 64 285 3.0 14.0 0.00 0.00 0.00 74 1011.5
20260505014002 65 273 3.0 14.0 0.00 0.00 0.00 73 1011.5
20260505013503 65 278 2.0 11.0 0.00 0.00 0.00 72 1011.6
20260505013002 65 313 3.0 11.0 0.00 0.00 0.00 72 1011.5
20260505012502 66 306 4.0 12.0 0.00 0.00 0.00 72 1011.5
20260505012003 66 282 4.0 12.0 0.00 0.00 0.00 71 1011.6
20260505011502 67 292 5.0 12.0 0.00 0.00 0.00 70 1011.4
20260505011002 67 306 3.0 11.0 0.00 0.00 0.00 70 1011.5
20260505010503 68 286 4.0 11.0 0.00 0.00 0.00 68 1011.4
20260505010002 68 308 4.0 12.0 0.00 0.00 0.00 69 1011.5
20260505005502 68 297 4.0 12.0 0.00 0.00 0.00 68 1011.4
20260505005003 69 293 3.0 10.0 0.00 0.00 0.00 68 1011.4
20260505004502 69 310 4.0 10.0 0.00 0.00 0.00 68 1011.4
20260505004002 69 260 3.0 11.0 0.00 0.00 0.00 67 1011.4
20260505003503 69 281 4.0 11.0 0.00 0.00 0.00 67 1011.3
20260505003002 70 264 3.0 9.0 0.00 0.00 0.00 67 1011.4
20260505002502 70 310 3.0 10.0 0.00 0.00 0.00 67 1011.5
20260505002003 70 309 5.0 11.0 0.00 0.00 0.00 66 1011.4
20260505001502 70 312 2.0 11.0 0.00 0.00 0.00 66 1011.4
20260505001002 70 274 2.0 12.0 0.00 0.00 0.00 66 1011.4
20260505000503 70 212 3.0 14.0 0.00 0.00 0.00 65 1011.3
20260505000002 71 287 5.0 14.0 0.00 0.00 0.00 65 1011.3
20260504235502 71 333 5.0 15.0 0.00 0.00 0.00 66 1011.3
20260504235003 71 326 8.0 15.0 0.00 0.00 0.00 65 1011.3
20260504234502 71 289 4.0 15.0 0.00 0.00 0.00 65 1011.3
20260504234003 72 320 7.0 15.0 0.00 0.00 0.00 64 1011.3
20260504233503 72 328 6.0 16.0 0.00 0.00 0.00 66 1011.3
20260504233002 72 305 5.0 16.0 0.00 0.00 0.00 66 1011.2
20260504232503 72 304 3.0 17.0 0.00 0.00 0.00 66 1011.1
20260504232003 72 311 6.0 17.0 0.00 0.00 0.00 66 1011.1
20260504231502 72 306 6.0 13.0 0.00 0.00 0.00 66 1011.0
20260504231003 72 323 6.0 14.0 0.00 0.00 0.00 66 1011.2
20260504230502 73 307 5.0 14.0 0.00 0.00 0.00 64 1011.1
20260504230002 73 322 5.0 14.0 0.00 0.00 0.00 66 1011.1
20260504225503 73 308 5.0 14.0 0.00 0.00 0.00 65 1011.3
20260504225003 73 319 6.0 12.0 0.00 0.00 0.00 66 1011.3
20260504224502 73 318 6.0 12.0 0.00 0.00 0.00 65 1011.3
20260504224003 73 309 5.0 13.0 0.00 0.00 0.00 63 1011.4
20260504223502 73 317 5.0 13.0 0.00 0.00 0.00 65 1011.4
20260504223002 74 311 5.0 11.0 0.00 0.00 0.00 65 1011.4
20260504222503 74 321 6.0 11.0 0.00 0.00 0.00 66 1011.5
20260504222002 74 316 3.0 10.0 0.00 0.00 0.00 65 1011.5
20260504221502 74 288 3.0 10.0 0.00 0.00 0.00 63 1011.6
20260504221003 75 294 3.0 9.0 0.00 0.00 0.00 64 1011.6
20260504220502 74 306 4.0 9.0 0.00 0.00 0.00 64 1011.6
20260504220002 74 311 2.0 10.0 0.00 0.00 0.00 65 1011.8
20260504215503 74 294 5.0 10.0 0.00 0.00 0.00 63 1011.8
20260504215002 73 292 6.0 10.0 0.00 0.00 0.00 62 1011.8
20260504214502 73 353 3.0 8.0 0.00 0.00 0.00 62 1011.8
20260504214003 73 316 3.0 13.0 0.00 0.00 0.00 65 1011.8
20260504213502 73 329 6.0 13.0 0.00 0.00 0.00 66 1011.9
20260504213002 73 330 5.0 11.0 0.00 0.00 0.00 66 1011.9
20260504212503 73 305 4.0 12.0 0.00 0.00 0.00 67 1012.0
20260504212002 73 291 4.0 12.0 0.00 0.00 0.00 66 1011.9
20260504211502 73 323 4.0 10.0 0.00 0.00 0.00 66 1012.0
20260504211003 73 323 5.0 10.0 0.00 0.00 0.00 66 1012.0
20260504210502 73 324 4.0 9.0 0.00 0.00 0.00 68 1012.1
20260504210002 72 310 5.0 10.0 0.00 0.00 0.00 67 1012.1
20260504205503 72 326 5.0 11.0 0.00 0.00 0.00 68 1012.3
20260504205002 72 323 7.0 11.0 0.00 0.00 0.00 67 1012.3
20260504204502 72 312 4.0 10.0 0.00 0.00 0.00 68 1012.2
20260504204003 71 323 5.0 11.0 0.00 0.00 0.00 69 1012.3
20260504203502 71 323 5.0 11.0 0.00 0.00 0.00 69 1012.5
20260504203003 71 314 5.0 11.0 0.00 0.00 0.00 68 1012.5
20260504202503 71 328 3.0 10.0 0.00 0.00 0.00 70 1012.5
20260504202002 71 328 6.0 10.0 0.00 0.00 0.00 69 1012.6
20260504201503 70 327 5.0 10.0 0.00 0.00 0.00 70 1012.6
20260504201003 70 327 5.0 11.0 0.00 0.00 0.00 71 1012.7
20260504200502 70 308 5.0 11.0 0.00 0.00 0.00 71 1012.8
20260504200003 70 323 7.0 10.0 0.00 0.00 0.00 69 1012.9
20260504195503 70 310 5.0 10.0 0.00 0.00 0.00 71 1013.0
20260504195002 70 315 4.0 10.0 0.00 0.00 0.00 73 1012.9
20260504194503 69 296 4.0 10.0 0.00 0.00 0.00 71 1012.9
20260504194003 69 316 3.0 10.0 0.00 0.00 0.00 73 1013.0
20260504193503 69 323 4.0 10.0 0.00 0.00 0.00 72 1013.1
20260504193003 69 315 4.0 8.0 0.00 0.00 0.00 72 1013.1
20260504192502 68 300 3.0 8.0 0.00 0.00 0.00 71 1013.2
20260504192002 68 317 3.0 7.0 0.00 0.00 0.00 73 1013.3
20260504191503 67 300 2.0 7.0 0.00 0.00 0.00 73 1013.3
20260504191002 67 315 3.0 8.0 0.00 0.00 0.00 75 1013.3
20260504190502 67 288 3.0 8.0 0.00 0.00 0.00 75 1013.4
20260504190003 66 318 3.0 9.0 0.00 0.00 0.00 77 1013.4
20260504185502 65 314 5.0 9.0 0.00 0.00 0.00 76 1013.4
20260504185002 65 330 5.0 9.0 0.00 0.00 0.00 77 1013.5
20260504184503 65 334 4.0 9.0 0.00 0.00 0.00 77 1013.6
20260504184002 65 338 4.0 9.0 0.00 0.00 0.00 76 1013.5
20260504183503 65 296 5.0 9.0 0.00 0.00 0.00 76 1013.5
20260504183003 64 349 4.0 9.0 0.00 0.00 0.00 78 1013.6
20260504182502 64 328 4.0 10.0 0.00 0.00 0.00 76 1013.7
20260504182003 64 324 4.0 10.0 0.00 0.00 0.00 78 1013.7
20260504181503 64 315 3.0 10.0 0.00 0.00 0.00 79 1013.7
20260504181002 64 328 5.0 9.0 0.00 0.00 0.00 78 1013.8
20260504180503 64 328 4.0 9.0 0.00 0.00 0.00 78 1013.9
20260504180003 63 316 3.0 9.0 0.00 0.00 0.00 80 1013.7
20260504175502 63 337 5.0 10.0 0.00 0.00 0.00 80 1013.8
20260504175003 62 324 5.0 10.0 0.00 0.00 0.00 79 1013.7
20260504174503 62 333 6.0 9.0 0.00 0.00 0.00 79 1013.7
20260504174002 62 325 5.0 9.0 0.00 0.00 0.00 80 1013.8
20260504173503 62 307 5.0 11.0 0.00 0.00 0.00 81 1013.8
20260504173002 62 321 5.0 11.0 0.00 0.00 0.00 79 1013.7
20260504172502 62 329 6.0 10.0 0.00 0.00 0.00 80 1013.8
20260504172003 62 320 4.0 9.0 0.00 0.00 0.00 81 1013.9
20260504171502 61 288 3.0 10.0 0.00 0.00 0.00 82 1013.9
20260504171003 61 317 5.0 10.0 0.00 0.00 0.00 82 1013.8
20260504170503 61 322 6.0 10.0 0.00 0.00 0.00 82 1013.9
20260504151002 56 281 2.0 10.0 0.00 0.00 0.00 89 1013.2
20260504150503 56 297 3.0 9.0 0.00 0.00 0.00 89 1013.2
20260504141003 55 246 1.0 3.0 0.00 0.00 0.00 91 1012.8
20260504140503 54 179 1.0 3.0 0.00 0.00 0.00 92 1012.7
20260504130502 54 173 1.0 4.0 0.00 0.00 0.00 91 1011.6
20260504110502 55 17 2.0 4.0 0.00 0.00 0.00 87 1010.4
20260504100502 56 293 0.0 3.0 0.00 0.00 0.00 85 1010.2
20260504082003 58 97 0.0 1.0 0.00 0.00 0.00 85 1009.4
20260504081502 58 97 0.0 1.0 0.00 0.00 0.00 85 1009.5
20260504081002 58 99 1.0 1.0 0.00 0.00 0.00 84 1009.4
20260504080503 58 100 0.0 0.0 0.00 0.00 0.00 84 1009.3
20260504050502 65 298 1.0 3.0 0.00 0.00 0.00 68 1008.5
20260504050003 66 295 2.0 3.0 0.00 0.00 0.00 69 1008.6
20260504045502 66 293 0.0 1.0 0.00 0.00 0.00 67 1008.4
20260504045002 66 293 0.0 2.0 0.00 0.00 0.00 68 1008.3
20260504044503 67 293 1.0 3.0 0.00 0.00 0.00 67 1008.3
20260504044003 67 294 1.0 3.0 0.00 0.00 0.00 66 1008.3
20260504043502 67 212 0.0 3.0 0.00 0.00 0.00 65 1008.2
20260504043003 68 211 1.0 3.0 0.00 0.00 0.00 65 1008.2
20260504042502 68 212 0.0 3.0 0.00 0.00 0.00 64 1008.1
20260504042002 69 236 2.0 3.0 0.00 0.00 0.00 64 1008.1
20260504041503 69 277 0.0 0.0 0.00 0.00 0.00 62 1008.1
20260504041003 70 277 0.0 1.0 0.00 0.00 0.00 61 1008.1
20260504040502 70 277 0.0 1.0 0.00 0.00 0.00 60 1008.0
20260504040002 71 277 0.0 0.0 0.00 0.00 0.00 59 1008.0
20260504035503 71 278 0.0 0.0 0.00 0.00 0.00 59 1008.0
20260504035002 72 277 0.0 0.0 0.00 0.00 0.00 59 1008.0
20260504034503 73 277 0.0 1.0 0.00 0.00 0.00 57 1007.9
20260504034003 74 278 0.0 1.0 0.00 0.00 0.00 55 1007.8
20260504033502 75 278 0.0 0.0 0.00 0.00 0.00 54 1007.8
20260504033003 76 278 0.0 0.0 0.00 0.00 0.00 52 1007.8
20260504032503 77 278 0.0 0.0 0.00 0.00 0.00 50 1007.7
20260504032002 78 278 0.0 0.0 0.00 0.00 0.00 49 1007.7
20260504031503 79 277 0.0 1.0 0.00 0.00 0.00 47 1007.7
20260504031003 79 277 0.0 2.0 0.00 0.00 0.00 44 1007.7
20260504030502 80 277 1.0 2.0 0.00 0.00 0.00 42 1007.6
20260504030003 81 278 0.0 3.0 0.00 0.00 0.00 41 1007.5
20260504025502 82 275 1.0 3.0 0.00 0.00 0.00 41 1007.5
20260504025002 82 316 1.0 3.0 0.00 0.00 0.00 39 1007.5
20260504024503 83 320 1.0 7.0 0.00 0.00 0.00 38 1007.6
20260504024002 83 311 1.0 8.0 0.00 0.00 0.00 37 1007.4
20260504023502 83 351 3.0 11.0 0.00 0.00 0.00 37 1007.4
20260504023003 84 351 3.0 11.0 0.00 0.00 0.00 36 1007.4